RH
37 35 32 31 29 27 26 24 24 24 24 24 25 26 26 27 28 28 29 30 30 30 30 29 29 28 28 27 26 26 25 24 23 22 22 21 20 20 19 18 18 18 17 16 16 16 15 14 14 14 13 12 12 12 11 10 10 10 9 8 8 8 7 7 6 6 6 6 5 5 5 5 4 4 4 4 4 4 4 4 4 4 4 4 4 4
33 30 28 27 26 24 24 24 24 25 26 26 27 28 29 29 30 30 30 30 30 30 29 29 28 27 26 26 25 24 23 22 22 21 20 20 19 18 18 17 17 16 16 15 15 14 14 13 12 12 12 11 10 10 10 9 8 8 8 7 6 6 6 6 5 5 5 5 5 5 4 4 4 4 4 4 4 4 4 4 4 4 4 4 4 4
29 28 26 26 25 25 26 26 27 27 28 29 30 30 30 30 31 31 31 30 30 29 28 27 26 26 25 24 23 22 22 21 20 19 19 18 18 17 16 16 16 15 14 14 13 13 12 12 11 10 10 10 9 8 8 7 7 6 6 6 6 5 5 5 5 5 5 5 5 5 5 5 5 5 5 5 5 5 5 5 5 5 5 5 5 5
27 26 26 26 26 27 28 28 29 30 30 30 31 31 31 31 31 30 30 29 28 28 27 26 25 24 23 22 22 21 20 19 19 18 18 17 16 16 15 15 14 14 13 12 12 11 11 10 10 9 8 8 7 7 6 6 6 6 6 5 5 5 5 5 5 6 6 6 6 6 6 6 6 7 7 7 7 7 7 7 7 6 6 6 7 7
28 27 28 28 29 30 30 30 31 31 31 31 31 31 31 30 30 29 28 28 27 26 25 24 23 22 22 21 20 19 18 18 17 16 16 16 15 14 14 14 13 12 12 11 10 10 9 8 8 7 7 6 6 6 6 6 6 6 6 6 6 6 6 6 6 6 7 7 7 8 8 8 8 8 8 8 8 8 8 8 8 8 8 8 8 8
29 29 30 30 31 32 32 32 32 32 32 32 31 30 30 29 28 28 27 26 25 24 23 22 22 21 20 19 18 18 17 16 16 16 15 14 14 13 13 12 11 10 10 9 8 8 7 7 6 6 6 6 6 6 6 6 7 7 7 7 7 7 7 7 8 8 8 8 9 10 10 10 10 10 10 9 9 9 8 8 8 8 8 8 8 8
31 32 32 32 33 33 33 33 32 32 32 32 30 30 29 28 27 26 25 24 23 22 22 21 20 19 18 18 17 16 16 15 15 14 14 13 12 12 11 10 10 8 8 8 7 7 6 6 6 7 7 7 7 8 8 8 8 8 8 8 8 8 8 8 8 9 10 10 10 10 10 10 10 10 9 8 8 8 8 7 7 7 7 8 8 8
34 34 34 35 35 34 34 33 32 32 32 31 30 28 28 26 26 24 23 22 21 20 20 19 18 18 17 16 16 15 14 14 14 13 12 12 11 10 9 8 8 7 6 6 6 7 7 7 8 8 8 9 9 9 10 10 9 9 9 9 9 9 9 10 10 10 10 11 10 10 10 9 8 8 7 6 6 6 6 6 6 6 8 10 10 11
35 36 36 36 35 35 34 33 32 31 30 29 28 27 26 25 24 23 22 21 20 19 18 17 16 16 16 15 14 14 13 12 12 11 10 10 8 8 7 7 6 6 6 7 8 8 8 9 10 10 10 10 11 11 10 10 10 10 10 10 10 10 10 11 11 11 11 10 9 8 7 7 6 6 6 6 6 6 6 6 7 8 10 12 15 16
36 36 36 36 35 34 33 32 31 30 28 27 26 25 24 23 22 21 20 19 18 17 16 16 15 14 14 14 13 12 11 10 10 9 8 7 7 6 6 6 7 7 8 9 10 10 11 12 12 12 12 12 12 12 11 11 11 11 11 11 11 12 12 12 11 10 10 8 7 6 5 5 5 5 6 6 8 9 10 10 11 12 14 17 20 23
37 36 36 34 34 32 32 30 29 28 26 25 24 23 22 21 20 19 18 18 17 16 15 14 14 13 12 12 11 10 9 8 8 7 6 6 6 6 7 8 8 10 10 11 12 13 13 14 14 13 13 13 13 12 12 12 12 12 12 12 12 12 12 11 10 8 6 5 4 4 4 4 4 5 7 8 10 12 14 16 18 19 21 23 26 28
36 36 34 33 32 30 29 28 26 25 24 22 22 20 20 19 18 17 16 16 15 14 13 13 12 11 10 9 8 8 7 6 6 6 6 6 7 8 9 10 11 12 13 14 14 15 15 15 14 14 14 14 14 14 14 14 14 14 14 14 13 12 10 8 6 5 4 4 4 4 4 4 4 4 6 9 12 15 18 21 24 26 26 27 28 30
35 34 32 31 29 28 26 25 24 22 22 20 19 18 18 17 16 16 15 14 13 12 12 10 10 9 8 7 6 6 6 6 6 6 7 8 9 10 12 13 14 15 15 16 16 16 16 16 16 16 16 16 16 16 16 16 16 15 14 13 11 8 6 5 4 4 4 4 4 5 5 4 4 4 5 8 11 15 19 24 26 28 29 30 31 32
32 31 29 27 26 24 23 22 21 20 19 18 18 16 16 16 15 14 13 12 12 11 10 8 8 7 6 6 5 5 6 6 7 8 9 10 12 14 15 15 16 16 17 17 18 18 18 18 18 18 18 18 18 18 18 18 16 15 12 10 7 5 4 4 4 4 5 6 6 6 7 7 6 6 6 7 10 13 18 23 26 30 32 36 38 41
28 27 25 24 22 22 20 19 18 18 17 16 16 15 15 14 13 12 11 10 10 9 8 7 6 6 5 5 6 7 8 8 10 10 12 13 14 16 17 17 17 17 18 19 19 19 20 20 20 20 20 20 21 20 19 18 15 11 8 6 4 4 4 5 5 6 6 7 8 8 8 9 8 8 8 8 10 13 18 23 28 32 36 42 48 52
24 23 22 21 20 19 18 18 17 16 16 15 14 14 13 12 11 10 9 8 8 6 6 5 5 5 5 6 8 10 10 11 12 13 14 15 16 17 18 18 18 18 20 21 22 22 22 22 23 23 23 23 22 20 18 14 10 7 4 4 4 5 6 6 7 8 8 8 9 10 10 10 10 10 9 10 12 16 20 25 29 33 37 42 49 57
22 20 19 18 18 18 17 16 15 14 14 13 12 11 10 10 8 8 7 6 6 5 5 5 6 6 7 9 10 12 14 14 14 14 15 16 16 17 19 19 20 20 22 23 24 25 26 26 26 26 26 24 21 17 12 8 6 4 4 6 6 7 8 8 9 10 10 10 11 12 12 12 11 10 10 12 14 17 22 26 30 34 36 41 48 54
19 18 18 17 16 16 15 14 13 12 12 10 10 9 8 7 6 6 5 5 5 5 6 6 8 9 10 12 13 14 16 17 16 16 16 16 16 18 20 21 22 24 25 26 28 29 29 29 29 28 26 21 16 11 7 5 5 6 7 8 8 10 10 10 11 11 12 12 13 13 14 13 12 12 12 12 14 17 20 24 28 32 34 38 41 45
17 16 16 15 14 13 12 12 11 10 9 8 8 7 6 6 5 5 5 5 6 7 8 10 11 12 14 15 16 16 18 18 18 16 16 17 18 20 23 24 26 27 28 30 32 33 34 32 30 26 21 15 10 6 4 6 7 8 10 10 12 12 13 13 13 13 14 14 14 14 14 13 13 13 13 13 14 16 18 22 25 28 31 33 34 36
15 14 14 12 12 11 10 10 8 8 7 6 6 5 5 5 5 6 6 8 9 10 12 14 14 16 16 17 17 18 19 19 19 18 18 19 20 23 26 28 30 30 32 34 36 37 36 32 27 20 13 8 6 5 6 8 10 12 13 14 15 16 16 16 16 15 14 14 14 14 14 13 13 13 14 14 14 15 16 19 22 25 28 29 29 28
12 12 11 10 10 8 8 7 6 6 5 5 5 5 5 6 7 8 10 12 13 14 16 17 18 18 18 18 19 20 21 22 22 21 21 22 24 26 29 31 32 33 35 38 40 38 34 26 19 12 7 6 6 8 10 12 14 16 18 19 20 20 20 19 18 17 16 15 14 14 13 13 13 13 13 13 14 14 16 18 20 23 26 26 26 26
10 10 9 8 7 6 6 6 5 5 5 5 6 6 8 9 11 12 14 16 18 18 19 20 20 20 20 21 22 24 25 26 26 25 24 25 26 29 31 32 34 35 38 40 39 34 26 18 11 7 6 7 9 11 13 16 19 22 24 26 27 27 26 24 22 20 18 16 15 14 14 14 13 13 13 13 14 14 16 18 21 23 25 26 28 30
8 8 7 6 6 5 5 5 5 6 6 8 9 10 12 14 16 17 18 20 21 21 22 21 22 22 23 24 26 28 29 30 30 29 28 28 29 30 32 33 35 37 40 40 34 26 16 10 7 7 8 10 12 15 18 23 27 31 34 35 36 36 34 32 28 26 23 20 19 18 16 16 15 15 15 15 16 17 18 20 23 25 28 30 33 36
6 6 6 5 5 5 6 6 7 8 10 11 13 15 17 19 20 21 22 23 23 23 23 24 24 26 27 29 31 32 33 33 32 32 31 31 31 32 33 35 37 40 41 35 27 18 10 8 8 9 11 13 16 21 27 34 39 43 45 46 47 46 44 42 38 34 31 28 25 23 22 21 20 20 20 20 21 22 23 26 28 30 33 35 37 38
6 5 5 5 6 6 7 8 10 11 13 15 17 19 20 22 23 23 24 24 25 25 26 27 28 30 32 33 34 36 36 36 35 34 34 33 33 34 35 38 40 40 38 28 19 11 7 8 10 12 14 16 22 30 40 47 52 55 56 56 56 56 54 51 48 44 40 37 34 32 30 28 28 27 27 28 28 30 31 33 35 37 38 39 40 40
5 6 6 6 8 8 10 12 13 15 16 18 20 21 22 23 24 24 26 26 28 29 30 32 34 36 37 38 39 40 39 38 38 37 36 35 35 36 39 42 42 39 32 21 13 9 8 11 13 15 16 22 31 42 54 59 62 62 62 62 61 60 60 58 56 54 51 48 45 42 40 38 37 37 37 38 39 40 40 42 42 42 42 41 40 39
6 7 8 9 10 12 14 15 16 18 19 20 22 23 24 24 26 28 30 31 33 35 37 39 41 42 43 44 44 44 42 42 40 39 37 37 38 40 43 44 40 34 24 15 10 10 12 14 16 17 19 29 42 54 63 66 66 65 64 63 62 61 61 61 61 60 60 58 55 53 50 49 48 47 47 48 48 48 48 47 45 43 42 40 39 38
8 10 10 12 14 15 16 18 19 20 22 23 24 25 26 28 30 33 36 38 40 42 45 47 48 49 49 49 49 48 47 46 44 41 39 39 40 43 46 44 37 27 16 11 10 12 15 16 16 19 24 38 52 63 68 68 68 66 64 63 62 61 62 63 64 65 65 64 63 61 60 58 56 55 54 53 52 51 49 47 44 42 40 39 38 38
11 13 14 16 17 18 20 20 22 23 24 26 27 29 31 34 37 40 43 45 48 50 52 53 54 54 54 53 52 52 51 50 47 43 40 41 44 46 47 41 31 20 11 10 12 15 17 17 18 21 30 46 59 68 70 69 68 66 64 63 62 62 62 64 65 66 68 67 66 66 64 62 61 59 57 55 52 50 48 45 42 40 40 40 40 40
15 16 18 19 20 21 22 23 24 26 27 30 32 35 38 40 44 47 50 52 54 56 58 58 58 58 57 56 55 54 54 52 48 44 42 44 47 48 46 36 24 14 8 11 15 18 18 18 19 24 35 52 64 70 70 68 67 66 65 64 64 64 64 65 66 68 68 68 67 66 65 64 62 60 58 55 52 50 47 44 42 42 42 42 42 42
18 20 21 22 23 24 25 26 28 30 33 36 40 42 45 47 50 52 54 56 57 58 60 60 60 60 59 58 57 57 56 52 47 44 43 46 49 48 42 30 18 11 9 13 16 19 20 20 22 28 41 56 66 70 69 68 66 65 66 66 66 66 66 67 68 68 68 68 67 66 66 64 63 61 58 55 52 50 47 45 44 44 43 43 43 43
20 22 23 24 26 27 28 30 33 36 40 44 47 50 51 53 54 55 56 57 58 59 60 60 61 61 60 60 59 58 56 51 46 43 44 48 49 46 36 24 15 10 11 14 18 20 21 24 28 36 48 60 68 70 68 66 65 66 68 69 69 69 68 68 69 69 69 68 68 66 66 65 64 62 59 56 54 52 50 49 48 48 48 48 49 50
21 23 24 26 28 30 32 35 38 42 46 49 52 54 55 56 56 57 57 58 58 59 60 61 61 62 61 61 60 59 56 51 46 44 46 49 48 42 30 19 13 12 14 16 18 20 22 28 36 45 57 65 68 69 67 66 66 68 71 72 72 71 70 70 71 71 70 70 69 68 68 66 66 64 62 60 58 57 56 56 56 56 58 59 60 61
22 24 26 28 31 34 36 40 43 47 50 53 55 56 57 57 57 58 58 58 59 60 60 61 62 62 63 62 61 59 56 50 47 46 49 50 46 38 25 16 13 13 16 17 18 19 22 31 42 53 64 68 69 68 66 66 68 70 73 74 74 73 72 72 72 72 72 72 72 71 70 70 69 68 67 66 65 64 64 64 65 66 67 69 70 71
24 26 29 32 35 38 42 45 48 51 53 55 56 57 57 57 58 58 58 58 60 60 61 62 63 64 64 62 61 58 54 50 48 49 52 50 44 34 22 15 13 14 17 18 18 20 24 33 46 58 68 69 68 66 65 66 69 72 74 74 74 74 74 74 74 74 74 74 73 73 73 72 72 71 70 70 69 68 68 69 70 70 72 72 73 73
29 31 34 37 40 44 47 50 52 54 55 56 56 56 57 57 58 58 58 59 60 61 62 64 64 64 63 62 60 58 54 51 51 53 54 49 40 30 19 14 14 15 18 18 19 21 26 35 47 59 68 69 68 66 64 66 70 73 74 74 74 74 74 74 74 74 74 74 74 74 73 73 72 71 70 69 68 68 68 69 70 70 70 71 71 71
35 38 40 43 46 49 52 53 55 56 56 56 56 56 57 57 58 58 58 60 61 62 64 65 65 64 62 60 58 56 54 54 55 56 55 47 37 26 17 14 14 16 18 18 19 22 28 37 49 60 68 68 67 65 63 66 70 74 74 74 74 74 74 74 73 73 73 74 74 74 73 72 71 70 68 67 66 66 66 66 67 67 67 67 68 68
42 44 47 49 51 53 55 56 56 57 57 57 57 57 57 58 58 58 58 60 61 63 66 66 66 64 62 60 58 56 55 56 57 57 54 45 34 24 16 14 15 17 18 18 20 23 30 39 50 60 67 67 66 64 62 65 70 74 74 74 74 73 73 73 72 72 73 74 74 74 73 72 71 70 68 67 66 65 64 64 64 64 64 64 64 65
47 49 51 53 54 56 56 57 57 57 57 57 58 58 58 58 58 58 58 60 62 64 66 67 66 64 62 60 58 57 56 58 58 58 53 42 31 21 15 15 16 18 18 18 20 24 31 41 52 61 66 66 65 63 61 63 68 72 74 74 74 74 72 72 72 72 72 73 74 74 73 72 72 71 70 68 66 65 64 63 62 62 62 62 63 64
51 52 54 54 55 56 57 57 57 57 57 57 58 58 58 58 58 58 58 60 62 64 67 67 66 64 62 61 60 58 58 59 59 56 50 39 28 19 15 16 17 18 18 18 20 24 32 43 54 62 68 67 66 64 62 62 66 69 73 74 74 74 73 72 72 72 72 73 73 73 73 73 72 72 70 69 68 66 65 64 63 63 63 63 63 63
52 53 54 54 54 55 56 56 56 56 56 57 58 58 58 58 58 58 59 60 62 65 68 67 66 64 63 62 61 60 60 60 58 55 47 36 25 18 15 16 18 18 18 18 20 24 32 44 55 64 69 68 66 65 63 62 64 67 70 71 72 73 73 73 72 73 73 73 74 74 74 73 73 72 72 70 68 67 66 66 65 64 64 64 64 64
51 51 52 52 52 53 54 55 55 56 57 58 58 60 60 60 60 61 61 62 64 66 68 68 66 66 65 64 63 62 62 61 58 53 44 32 23 18 16 17 18 19 18 18 19 24 32 44 56 65 70 69 68 66 64 62 62 64 67 68 69 70 70 70 70 70 71 72 73 74 74 74 74 74 73 72 71 69 68 67 66 66 66 65 65 64
48 48 49 50 51 52 54 55 56 58 58 60 61 62 63 64 64 64 65 66 67 68 69 68 67 66 66 65 64 63 63 62 58 50 40 30 22 17 16 18 19 19 19 18 19 23 30 42 55 65 71 70 69 68 66 63 62 62 64 66 66 67 68 66 66 66 66 67 68 69 70 71 72 72 73 73 72 71 69 68 66 66 66 66 65 65
46 47 49 50 52 54 56 58 59 61 62 64 65 66 66 66 66 67 68 69 70 70 70 68 67 66 66 64 64 63 63 60 55 48 37 27 21 17 17 18 19 19 19 18 20 23 29 41 53 64 70 70 70 68 66 64 63 62 63 63 64 64 64 64 63 62 62 62 63 64 64 65 66 67 68 69 69 68 68 66 66 65 65 64 64 64
48 50 51 54 56 58 60 61 62 64 66 68 68 68 68 68 68 69 70 72 72 71 69 68 66 66 65 64 64 63 62 58 52 44 34 25 20 18 18 18 19 19 19 18 20 23 28 39 50 61 68 70 71 70 68 67 66 64 63 62 61 61 62 61 61 60 60 60 60 60 60 60 62 62 64 65 65 65 64 64 63 63 63 63 63 63
50 52 54 55 57 58 60 61 63 65 67 68 69 69 69 69 70 71 72 72 72 70 68 66 65 65 64 64 64 63 62 56 49 40 31 24 19 18 18 18 19 19 18 19 20 23 28 37 48 57 66 70 72 71 70 68 67 66 63 61 60 60 60 60 60 59 59 58 58 58 58 58 59 60 61 62 62 62 62 61 61 61 61 61 61 61
49 50 50 51 52 53 54 55 57 59 62 64 66 68 69 70 71 72 72 72 71 69 66 65 64 64 64 64 64 63 61 55 46 37 28 22 19 18 18 18 18 18 18 19 20 23 28 36 45 54 63 69 72 72 71 69 68 66 64 62 60 60 59 59 58 58 58 58 58 57 57 57 58 58 58 60 60 60 60 60 60 60 59 60 60 60
42 42 42 43 44 46 47 48 50 52 55 57 60 63 66 68 70 72 72 71 70 68 66 64 64 64 64 64 64 63 60 53 44 35 26 21 18 17 18 18 18 18 19 19 21 24 28 35 44 52 61 68 72 74 72 70 69 67 65 63 61 60 59 58 58 58 57 57 57 56 56 56 56 56 56 57 58 58 58 58 58 58 58 58 59 60
31 32 34 36 39 42 44 46 48 50 52 53 56 59 62 66 69 70 71 70 69 67 65 65 64 64 64 64 64 62 58 50 42 33 26 20 18 16 17 18 18 18 19 20 21 24 27 34 42 51 60 67 72 74 73 72 70 68 66 64 62 61 60 58 58 58 57 56 56 55 54 54 54 54 55 55 56 56 57 57 57 57 58 58 59 60
24 26 29 34 38 42 44 46 47 49 50 52 54 58 62 66 68 69 70 70 68 66 64 64 64 64 64 64 64 61 56 48 40 32 25 20 17 16 16 17 18 19 19 20 22 24 27 33 41 50 59 66 70 72 72 71 70 68 67 65 63 61 60 60 58 58 57 56 55 54 54 54 53 53 54 54 54 54 55 56 56 56 57 58 59 60
23 24 26 29 32 36 39 41 43 46 48 51 54 57 62 66 68 69 69 68 67 65 64 64 64 64 65 64 62 59 53 46 39 32 24 19 16 15 16 17 18 19 20 21 22 24 28 33 40 47 56 63 67 69 69 68 68 66 66 64 62 62 61 61 60 58 57 56 55 55 54 54 53 53 52 52 53 53 54 54 55 56 58 59 60 62
Wind_Speed
58 57 57 57 57 57 57 57 58 58 59 60 61 62 63 64 65 66 67 68 69 70 70 71 72 72 73 74 75 76 77 77 78 79 79 80 81 81 82 82 83 84 85 85 86 87 88 89 90 91 92 93 94 94 95 96 97 97 98 99 99 100 100 101 101 102 102 102 102 102 102 102 102 102 101 101 101 101 101 100 100 100 100 100 100 100
58 58 57 57 58 58 59 59 60 61 62 63 63 64 65 66 67 68 69 70 71 72 73 73 74 75 75 76 77 78 79 79 80 81 81 82 83 83 84 85 86 87 87 88 89 90 91 92 93 94 95 96 97 97 98 99 99 100 101 101 101 102 102 102 102 102 102 101 101 100 99 98 98 97 96 96 96 96 96 95 95 94 94 94 94 94
58 58 58 59 59 60 61 62 62 63 64 65 66 67 67 68 69 70 71 72 73 74 75 75 76 77 77 78 79 80 81 82 82 83 84 84 85 86 87 88 88 89 90 91 92 93 94 95 96 97 98 99 99 100 100 101 101 101 101 101 101 101 101 100 99 99 98 97 95 94 93 92 91 90 89 89 89 88 88 88 87 87 87 87 87 87
59 60 60 61 61 62 63 64 65 66 66 67 68 69 70 70 71 72 73 74 75 76 77 77 78 79 79 80 81 82 83 84 84 85 86 87 88 89 89 90 91 92 93 94 95 96 97 98 99 99 100 100 101 101 101 101 101 100 100 99 99 98 96 95 94 92 91 89 88 86 85 84 83 82 82 81 81 81 80 80 80 79 79 79 79 80
61 62 62 63 64 64 65 66 67 68 69 70 70 71 72 73 74 74 75 76 77 78 79 79 80 81 81 82 83 84 85 86 87 88 88 89 90 91 92 93 94 95 96 97 98 99 99 100 100 100 100 100 100 99 99 98 97 97 96 94 93 91 90 88 86 84 82 81 79 78 77 77 76 76 76 75 75 75 75 75 75 74 74 74 74 73
62 63 64 65 66 67 68 68 69 70 71 72 73 73 74 75 76 76 77 78 79 79 80 81 82 82 83 84 86 87 88 88 89 90 91 92 93 94 95 96 97 98 99 99 99 100 100 99 99 98 98 97 96 95 94 93 92 91 89 88 86 84 82 80 78 76 75 73 73 72 72 72 72 72 72 72 72 72 72 72 72 72 72 71 71 70
65 65 66 67 68 69 70 70 71 72 73 74 75 75 76 77 77 78 79 79 80 81 82 83 83 84 85 87 88 89 90 91 92 93 93 94 95 96 97 98 99 99 99 99 99 98 97 96 95 94 93 92 91 90 89 87 86 84 82 80 78 76 75 73 71 70 69 69 69 69 69 69 70 70 70 70 70 70 70 70 70 70 70 70 69 69
67 67 68 69 70 71 72 72 73 74 75 76 77 77 78 78 79 79 80 81 82 83 84 85 85 86 87 89 90 92 93 93 94 95 96 97 98 99 99 99 99 98 98 96 95 94 93 91 90 89 88 86 85 83 82 80 79 77 75 74 72 71 69 68 67 67 66 66 66 66 66 67 67 68 68 68 68 68 68 68 68 68 68 67 67 67
69 70 70 71 72 73 74 74 75 76 77 78 78 79 79 80 80 81 81 82 83 84 86 87 88 89 90 91 93 94 95 96 97 97 98 98 99 99 98 97 96 95 93 92 90 88 87 86 84 83 81 80 78 77 75 74 73 71 70 69 68 67 66 65 65 64 64 63 63 63 64 64 64 65 65 65 65 65 65 65 65 65 64 64 64 64
71 71 72 73 74 74 75 76 76 77 78 79 80 80 81 81 82 83 83 84 85 86 88 89 90 91 92 94 95 96 97 98 98 99 99 98 98 97 95 93 92 90 88 86 84 83 81 80 78 77 75 74 73 72 70 69 68 68 67 66 65 64 64 63 62 62 61 60 60 59 60 60 61 61 61 61 61 61 61 61 61 61 60 60 59 59
73 73 74 75 75 76 76 77 78 79 79 80 81 82 83 83 84 84 85 86 87 88 90 91 92 93 94 95 97 98 98 98 99 98 97 96 94 92 90 88 86 84 82 80 79 77 76 74 73 72 71 70 69 68 67 66 66 65 64 64 63 62 61 60 59 58 57 56 55 55 55 56 56 56 56 56 56 56 56 56 56 55 55 54 53 52
74 75 76 76 77 77 78 79 79 80 81 82 83 83 84 85 86 86 87 88 89 90 92 93 94 95 96 96 97 98 98 97 96 95 93 91 89 86 84 82 80 78 76 75 74 72 71 70 69 68 67 66 66 65 65 64 63 63 62 61 60 59 58 57 55 54 52 51 50 51 51 51 52 51 51 51 50 50 50 50 50 49 49 48 46 45
76 76 77 78 78 79 79 80 81 82 83 83 84 85 86 87 88 89 89 90 91 92 93 95 96 96 97 97 97 96 95 94 92 90 87 84 82 80 77 76 74 73 71 70 69 68 67 66 66 65 65 64 64 63 62 62 61 60 59 58 56 55 53 51 50 48 46 45 45 46 46 46 46 46 45 45 45 45 45 45 45 44 43 42 40 38
77 78 78 79 79 80 81 81 82 83 84 85 86 87 88 89 90 91 91 92 93 94 95 95 95 96 96 95 94 93 91 89 86 84 81 78 76 74 72 70 69 68 66 65 65 65 64 64 63 63 62 62 61 60 60 59 58 56 55 53 52 50 47 45 43 41 40 40 40 40 40 40 40 39 39 39 39 39 40 40 40 40 39 37 35 34
78 79 79 80 81 82 82 83 84 86 87 88 89 90 91 92 93 93 94 94 95 96 96 95 95 94 92 91 89 87 85 83 80 77 74 72 71 69 67 66 65 64 63 62 62 62 62 61 61 60 60 59 58 57 56 55 54 52 50 48 46 43 41 38 36 35 34 34 34 34 34 34 34 34 33 33 33 34 34 35 35 35 34 33 32 32
80 80 81 82 83 84 85 86 87 88 89 90 91 92 93 94 95 96 96 96 96 96 95 94 92 90 88 86 84 80 78 76 75 72 68 66 66 65 63 62 62 61 60 60 59 60 59 59 58 58 57 56 55 54 53 51 49 47 44 42 39 36 34 32 31 30 30 30 29 29 30 30 30 30 29 29 28 29 29 30 30 30 30 30 30 29
82 83 83 84 85 87 88 89 90 91 92 93 94 95 96 96 97 97 97 96 95 94 92 90 87 84 81 80 79 76 72 69 68 67 65 62 62 62 61 59 59 59 58 58 57 57 57 56 55 55 54 53 52 50 49 47 44 41 38 35 32 30 28 27 27 26 26 26 26 26 27 27 27 27 26 25 25 24 24 24 25 26 26 27 26 26
84 85 86 87 88 89 90 92 93 94 95 96 97 97 97 97 97 96 95 94 92 90 87 85 82 78 74 72 71 71 68 64 63 63 61 59 59 59 58 57 57 56 55 55 55 54 54 53 52 51 51 49 48 46 44 41 38 34 31 29 27 26 25 25 24 24 24 24 24 25 25 25 25 25 24 23 22 21 20 20 21 21 22 23 23 23
87 88 88 89 91 92 93 94 95 96 97 97 98 98 97 97 95 93 91 89 86 83 80 77 75 72 69 65 64 64 62 60 59 59 58 57 56 56 56 55 54 54 53 52 52 52 51 50 49 48 47 46 44 41 38 35 31 29 27 25 25 24 24 24 23 23 23 23 23 23 24 24 23 23 22 21 20 19 18 17 17 17 18 18 18 18
90 91 91 92 93 95 96 96 97 97 97 98 97 96 95 93 91 88 85 82 79 77 74 70 67 65 63 60 59 59 58 57 57 57 56 55 54 53 53 52 52 51 50 49 49 49 48 48 46 45 44 41 39 36 32 29 27 25 24 24 23 23 23 23 23 23 23 23 23 23 23 22 22 21 21 20 19 18 16 15 15 15 15 14 14 14
93 94 94 95 96 96 97 98 98 98 97 96 95 93 90 87 84 81 78 74 72 69 67 63 61 59 58 56 55 55 55 55 55 55 54 53 51 50 50 49 49 48 47 46 46 46 45 44 43 41 39 36 33 30 27 26 24 24 23 23 23 23 22 22 22 22 22 22 22 22 22 22 21 21 20 20 19 17 16 15 14 13 13 13 12 13
95 96 97 97 97 97 97 97 97 96 94 92 89 86 84 80 76 73 70 67 64 62 60 58 56 55 54 53 53 53 53 53 53 53 52 51 49 48 47 47 46 45 44 44 43 43 42 40 39 37 34 31 28 26 24 23 23 22 22 22 22 21 21 21 21 21 21 21 21 21 21 21 21 21 20 19 18 17 16 14 14 13 12 12 12 13
97 97 98 98 98 97 96 95 93 91 89 85 82 78 76 72 68 65 63 61 58 56 55 54 53 52 51 51 51 52 52 52 52 51 50 48 47 45 45 44 43 42 42 41 40 39 38 36 34 32 30 27 25 23 22 22 21 21 21 21 20 20 20 20 20 20 20 20 20 20 21 21 21 20 19 19 17 16 15 14 13 12 11 11 12 12
98 98 98 97 96 95 93 90 88 85 82 78 74 71 68 65 62 59 57 55 54 53 52 52 51 51 51 50 51 51 51 50 50 49 48 46 45 43 42 42 41 40 39 38 37 36 34 32 30 28 26 24 22 21 20 20 20 20 20 19 19 19 19 18 18 18 19 19 19 19 19 19 19 19 18 18 17 16 15 14 13 12 11 11 10 10
98 97 96 95 93 90 87 84 81 78 74 71 67 64 62 59 57 55 54 52 51 51 51 51 50 50 50 50 50 49 49 49 48 47 46 45 43 42 40 40 39 38 37 36 34 33 31 29 27 25 23 22 20 19 19 19 18 19 18 18 18 18 18 17 17 17 18 18 18 18 18 18 18 18 17 17 16 15 15 14 13 12 11 10 10 9
96 95 93 90 88 85 81 78 74 71 67 64 61 59 57 55 54 53 52 51 51 51 51 50 50 50 50 49 49 48 48 47 46 45 44 43 42 40 39 38 37 36 35 33 31 30 28 26 24 23 21 19 18 18 17 17 18 18 18 18 18 18 17 17 17 17 17 17 18 18 18 17 17 17 16 16 15 15 14 13 12 11 10 9 8 7
92 90 87 84 81 77 74 70 67 64 61 58 56 54 53 52 52 52 52 51 51 51 50 50 50 49 49 48 47 47 46 46 45 44 43 41 40 39 37 36 36 34 33 30 28 27 25 24 23 21 19 18 17 17 17 17 17 18 18 18 18 17 17 16 16 17 17 17 17 17 17 17 16 16 15 15 14 13 13 12 11 9 8 7 7 6
87 84 80 77 73 70 66 63 60 58 56 54 53 52 51 51 51 51 51 51 51 50 50 49 49 48 47 46 46 45 45 44 44 43 41 40 39 37 36 35 34 32 30 28 26 24 23 22 21 19 17 16 16 16 16 17 17 17 18 17 17 17 16 16 16 16 16 16 16 16 16 16 15 14 14 13 12 12 11 10 9 8 7 6 5 5
79 76 72 69 65 62 60 57 55 53 52 51 51 51 51 51 51 51 51 51 50 49 49 48 47 47 46 45 44 44 43 43 42 41 40 39 37 36 34 33 32 30 27 25 23 22 22 21 20 18 16 15 15 16 16 16 17 17 17 17 16 16 15 15 15 15 15 15 15 15 15 14 14 13 12 11 11 10 9 8 7 6 5 5 5 5
71 67 64 61 59 56 54 53 52 51 51 51 51 51 52 51 51 51 50 50 49 48 47 47 46 45 44 44 43 42 41 41 40 40 38 37 35 34 32 31 30 27 25 22 21 20 21 20 19 17 15 14 14 15 16 16 16 16 16 16 15 15 15 14 14 14 14 14 14 14 14 13 13 12 11 10 9 9 8 7 6 5 5 5 5 5
63 60 58 56 54 53 52 51 51 51 51 51 51 52 52 51 51 50 49 48 47 46 45 45 44 44 43 42 41 40 40 39 39 38 36 35 33 32 30 29 27 25 23 21 19 19 19 19 18 16 14 14 13 14 15 15 16 16 15 15 14 14 14 14 13 13 13 13 13 13 13 13 12 11 10 9 9 8 7 6 6 5 5 5 5 5
57 55 54 53 52 52 52 52 51 51 51 52 52 52 51 51 50 49 48 47 46 45 44 43 42 42 41 40 40 39 39 38 37 35 34 33 31 29 28 27 25 23 21 20 18 18 18 18 17 16 14 13 13 13 14 14 15 15 14 14 13 14 14 13 13 13 12 12 13 13 13 12 12 11 10 9 8 7 6 6 5 5 5 5 5 5
53 52 52 52 52 52 53 52 52 52 52 51 51 51 50 50 49 48 46 45 44 43 42 41 40 40 39 39 38 38 37 36 35 34 32 31 29 27 26 24 23 22 20 19 18 17 16 16 16 15 13 12 12 12 13 14 14 13 13 12 13 13 13 13 13 12 12 12 12 12 12 12 11 11 10 9 8 7 6 5 5 5 5 5 5 5
53 53 53 53 53 54 54 53 53 52 52 51 50 50 49 48 47 46 45 43 42 41 40 39 38 38 37 37 36 36 35 35 34 32 31 29 27 25 24 23 21 20 19 18 17 16 15 15 15 14 13 12 11 11 12 13 13 12 12 12 12 12 13 13 13 12 11 11 11 12 12 12 11 10 9 8 7 7 6 6 5 5 5 5 5 5
54 54 54 54 55 55 54 54 53 52 51 51 50 49 48 47 45 44 43 41 40 39 38 37 36 36 36 35 35 34 34 33 32 31 29 27 26 24 22 21 20 19 18 17 16 15 15 15 14 13 12 11 11 11 12 12 12 11 11 11 11 12 12 12 12 12 11 11 11 11 12 11 11 10 9 8 8 7 7 7 6 6 6 5 5 5
56 56 56 55 55 55 54 53 53 52 51 50 49 48 46 45 44 42 41 39 38 37 36 35 35 34 34 34 33 33 32 31 31 29 28 26 24 23 21 20 19 18 17 16 15 15 14 14 14 13 11 10 10 10 11 11 11 10 10 10 11 11 11 12 12 11 11 11 11 11 11 11 11 10 9 9 8 8 8 7 7 7 6 6 6 5
57 57 56 55 55 54 53 53 52 51 50 49 48 46 45 44 42 41 39 37 36 35 34 33 33 33 33 32 32 31 31 30 29 28 27 25 23 22 20 19 18 17 16 15 14 14 14 14 13 12 11 10 10 10 10 10 10 9 9 9 10 10 10 11 11 10 10 10 10 10 11 11 11 10 9 9 8 8 7 7 7 6 6 6 6 6
57 56 56 55 54 53 52 51 50 50 49 48 46 45 44 42 41 39 37 36 34 33 32 32 32 32 31 31 31 30 30 29 28 27 25 24 22 21 20 18 17 16 15 14 14 14 14 14 13 12 10 10 9 10 10 10 9 8 8 9 9 9 9 9 9 9 9 9 9 9 10 10 10 9 9 8 7 7 7 6 6 6 5 5 5 6
56 55 54 53 52 51 50 50 49 48 47 46 45 44 42 41 40 38 36 34 33 31 31 31 31 30 30 30 29 29 28 28 27 25 24 23 21 20 19 17 17 16 15 14 13 13 13 14 13 12 10 9 9 10 10 10 9 8 8 8 8 8 8 8 8 8 8 8 8 8 9 9 9 9 8 8 8 7 7 6 6 6 5 5 6 6
54 53 52 51 50 49 48 48 47 46 45 44 43 42 41 40 38 36 35 33 31 30 30 30 30 29 29 29 28 28 28 27 26 24 23 21 20 19 18 17 16 15 14 14 13 13 13 13 13 12 10 10 9 9 10 10 9 8 7 7 6 6 7 7 7 7 7 7 7 7 8 9 9 9 9 9 8 8 8 7 7 6 6 6 6 6
51 50 49 48 48 47 46 46 45 44 43 42 41 40 39 38 37 35 34 32 30 29 29 29 29 28 28 27 27 27 27 26 25 23 21 20 19 18 17 16 15 15 14 13 13 13 13 13 13 12 11 10 10 10 10 10 9 8 8 7 6 6 6 6 6 6 6 6 6 7 7 8 9 9 9 10 9 9 8 8 8 7 7 7 7 7
48 48 47 46 46 45 45 44 44 43 42 41 40 39 38 37 36 34 33 31 30 29 28 28 28 27 27 26 26 27 27 26 24 22 20 19 18 17 16 15 15 14 14 13 13 13 13 13 12 12 11 10 10 10 10 10 9 9 8 7 6 6 5 5 5 5 5 6 6 6 7 8 8 9 9 10 10 10 10 9 9 8 8 8 7 7
46 46 46 45 45 44 44 44 43 42 42 41 40 38 37 36 35 33 32 30 29 28 28 27 27 26 26 26 26 26 26 25 23 21 19 18 17 16 15 15 14 14 14 13 13 12 12 13 12 12 12 11 11 11 11 11 10 10 9 8 8 7 6 6 6 6 6 6 6 7 7 8 8 9 9 10 10 11 11 10 10 9 9 8 8 8
45 45 45 45 45 45 44 44 43 43 42 40 39 38 37 35 34 32 31 30 28 28 27 27 26 26 25 25 25 25 24 23 22 20 18 17 16 15 15 14 14 14 13 13 13 12 12 12 12 12 12 12 12 12 12 12 11 11 10 10 9 8 8 7 7 7 7 7 8 8 8 9 9 9 10 10 11 11 11 11 11 10 10 9 9 9
46 46 46 46 45 45 45 44 44 43 41 40 39 37 36 35 33 32 30 29 28 27 26 26 26 25 25 24 24 24 23 22 20 19 17 16 15 14 14 14 13 13 13 13 12 12 12 12 13 13 13 13 13 13 13 13 12 12 12 11 10 10 9 9 9 9 9 9 9 10 10 10 10 10 10 11 11 12 12 12 12 11 11 11 10 10
47 46 46 46 46 46 45 45 44 42 41 40 38 37 35 34 32 31 29 28 27 26 26 26 25 24 24 23 23 22 22 21 19 17 16 15 14 14 13 13 13 13 13 12 12 12 12 12 13 13 13 13 13 13 13 13 13 13 12 12 11 11 10 10 10 10 10 11 11 11 11 11 11 11 11 11 12 12 13 13 12 12 12 11 11 11
47 47 46 46 46 45 45 44 43 41 40 38 37 35 34 32 31 29 28 27 26 26 25 25 24 23 22 22 21 21 21 20 18 17 15 14 13 13 13 13 13 13 12 12 12 12 12 12 13 13 13 13 14 14 14 14 14 13 13 12 12 12 12 12 11 12 12 11 11 11 11 11 11 11 11 12 12 13 13 13 13 13 12 12 12 12
46 45 45 44 44 43 42 42 40 39 37 36 34 33 31 30 29 27 26 26 25 25 24 24 23 22 21 20 20 20 19 18 17 16 14 13 12 12 12 12 12 12 12 12 12 12 12 12 13 13 13 13 14 14 15 14 14 14 13 13 13 13 13 13 12 12 12 12 12 12 12 11 11 12 12 12 12 13 13 13 13 13 13 13 12 12
43 43 42 41 41 40 39 38 37 36 34 33 31 30 28 27 26 25 24 24 24 23 23 22 21 20 20 19 19 18 18 17 16 15 13 12 12 12 12 12 12 12 12 11 12 12 12 12 12 13 13 13 14 14 15 15 14 14 14 14 14 14 14 13 13 13 13 12 12 12 12 12 11 11 11 12 12 12 12 13 12 12 12 12 12 12
41 40 39 38 37 36 36 35 34 33 31 30 28 26 25 24 23 22 22 22 22 22 21 20 19 19 18 18 17 17 16 15 15 13 12 12 11 11 11 11 11 11 11 11 11 11 11 11 12 12 13 13 14 14 14 14 14 14 15 15 15 14 14 14 14 13 13 13 12 12 11 11 10 10 10 10 11 11 11 12 12 12 12 12 12 12
39 38 37 36 35 33 32 31 30 29 27 26 24 23 22 21 20 20 20 20 20 20 19 18 18 17 17 16 16 15 15 14 13 12 12 11 11 11 11 11 11 11 11 11 11 11 11 11 11 11 12 13 13 14 13 14 14 14 14 14 14 14 14 14 14 14 13 13 12 11 10 10 9 8 8 8 9 9 10 10 10 10 11 11 11 11
Wind_Direction
294 294 293 293 293 293 293 293 293 293 293 293 294 294 294 294 294 294 294 294 294 294 293 293 293 293 293 293 293 292 292 292 292 292 292 291 291 291 291 291 291 291 291 290 290 290 290 290 290 289 289 289 289 289 288 288 288 288 287 287 287 286 286 286 285 285 284 284 283 283 282 281 281 280 279 278 278 277 276 275 275 274 273 273 272 271
294 294 294 294 294 294 294 294 294 294 294 294 294 294 294 294 294 294 294 294 294 294 294 294 294 294 294 293 293 293 293 293 292 292 292 292 292 292 292 292 292 292 291 291 291 291 291 291 291 290 290 290 290 289 289 289 289 288 288 288 287 287 287 286 286 285 285 284 283 283 282 281 281 280 279 278 277 277 276 275 275 274 273 272 272 271
295 295 295 295 295 295 295 295 295 295 295 295 295 295 295 295 295 295 295 295 295 295 295 295 295 294 294 294 294 294 293 293 293 293 293 293 293 293 293 293 293 292 292 292 292 292 292 292 291 291 291 291 290 290 290 289 289 289 288 288 287 287 287 286 286 285 285 284 283 283 282 281 280 280 279 278 277 277 276 275 275 274 273 272 271 271
296 296 296 296 295 296 296 296 296 296 296 296 295 295 295 295 295 295 295 295 295 295 295 295 295 295 295 295 294 294 294 294 294 294 294 294 294 294 293 293 293 293 293 293 293 293 292 292 292 292 291 291 291 290 290 290 289 289 288 288 288 287 287 286 286 285 285 284 284 283 282 281 280 280 279 278 278 277 276 275 275 274 273 272 272 271
297 297 297 296 296 296 296 296 296 297 296 296 296 296 296 296 296 296 296 296 296 296 296 296 296 296 295 295 295 295 295 294 294 294 294 294 294 294 294 294 294 294 294 294 293 293 293 293 292 292 292 291 291 290 290 290 289 289 288 288 288 287 287 286 286 285 285 284 284 283 282 281 281 280 279 278 278 277 276 276 275 274 273 273 272 271
297 297 297 297 297 297 297 297 297 297 297 297 297 297 297 297 297 296 296 296 296 296 296 296 296 296 296 296 295 295 295 295 295 295 295 295 295 295 295 295 294 294 294 294 294 294 293 293 293 292 292 291 291 290 290 289 289 289 288 288 288 287 287 286 286 285 285 284 284 283 282 281 281 280 279 278 278 277 277 276 275 275 274 273 272 272
298 298 298 298 298 298 298 298 298 298 297 297 297 297 297 297 297 297 297 297 297 297 296 296 296 296 296 296 296 295 295 295 295 295 295 295 295 295 295 295 295 295 295 295 294 294 293 293 292 292 291 291 291 290 290 289 289 289 289 288 288 287 287 286 286 285 285 284 283 283 282 281 280 280 279 278 278 277 276 276 275 274 273 273 272 271
298 298 298 298 298 298 298 298 298 298 297 297 297 297 297 297 297 297 297 297 297 297 297 296 296 296 296 296 296 295 295 295 295 295 295 296 296 296 296 295 295 295 295 295 294 294 293 292 292 292 291 291 290 290 290 289 289 289 289 288 288 287 287 286 286 285 284 284 283 283 282 281 280 279 279 278 277 276 275 275 274 273 272 272 271 270
298 298 298 298 298 298 298 298 298 298 297 297 297 297 297 297 297 297 297 297 297 297 296 296 296 296 296 296 296 296 296 296 296 296 296 296 296 296 296 296 295 295 295 294 294 293 293 292 292 291 291 291 290 290 290 290 289 289 289 289 288 288 287 287 286 285 285 284 283 283 282 281 280 279 278 277 276 276 275 274 273 272 271 271 270 269
298 298 298 298 298 298 298 298 298 298 297 297 297 297 297 297 297 297 297 297 297 296 296 296 296 296 296 296 296 296 296 296 296 296 296 296 296 296 296 296 295 295 294 294 293 293 292 292 291 291 291 291 290 290 290 290 290 290 289 289 289 288 288 288 287 286 286 285 284 283 282 280 280 279 278 277 276 275 274 273 273 272 271 270 270 269
299 298 298 298 298 298 298 298 298 298 297 297 297 297 297 297 297 297 297 297 296 296 296 296 296 296 296 296 296 296 296 296 296 296 296 296 296 296 296 295 295 294 294 293 293 292 292 292 291 291 291 291 291 291 291 290 290 290 290 290 290 290 289 289 288 288 287 286 284 283 281 280 279 278 278 277 276 275 275 274 273 272 272 271 270 269
299 299 298 298 298 298 298 298 298 298 297 297 297 297 297 297 297 296 296 296 296 296 296 296 296 296 296 296 296 296 296 296 296 296 296 296 296 296 295 295 294 294 293 293 292 292 292 292 292 292 292 292 292 291 291 291 291 291 291 291 291 291 291 290 289 289 287 286 284 282 281 280 279 279 278 278 277 276 276 275 274 273 272 271 270 269
299 298 298 298 298 298 298 298 298 298 297 297 297 296 296 296 296 296 296 295 295 295 295 295 296 296 296 296 296 296 296 296 296 296 296 296 296 295 294 294 294 293 293 293 293 293 293 293 293 293 292 292 292 292 292 292 292 292 292 292 292 292 292 291 290 289 287 285 283 282 281 281 281 281 280 280 279 279 277 276 275 274 273 272 271 270
298 298 298 298 298 298 298 298 297 297 297 296 296 296 295 295 295 295 295 295 295 295 295 295 296 296 296 296 296 296 296 296 296 296 296 295 295 294 294 293 293 293 293 293 293 293 293 293 293 293 293 293 293 293 293 293 293 293 293 293 293 292 292 291 290 288 286 284 283 283 283 283 283 283 283 283 283 282 280 278 276 274 272 271 271 271
298 298 298 298 298 298 297 297 296 296 296 295 295 295 295 295 295 294 295 295 295 295 295 295 296 296 296 296 296 296 296 296 296 296 295 295 294 293 293 293 293 293 293 294 293 293 293 293 293 293 293 293 293 293 293 293 293 294 294 294 293 293 292 290 289 287 286 285 284 284 285 285 285 285 286 286 286 285 283 281 278 274 272 270 270 271
298 298 298 298 298 297 297 297 296 296 295 295 295 295 295 295 295 295 295 295 295 295 296 296 296 296 296 296 296 295 295 295 295 295 295 294 294 293 293 293 293 294 294 294 294 293 293 293 293 293 293 293 293 293 294 294 294 294 294 294 293 292 291 290 288 287 286 285 285 285 285 285 286 286 287 288 288 287 285 282 279 275 271 268 268 269
298 298 298 298 298 297 297 296 296 296 295 295 295 295 295 295 295 296 296 296 296 296 296 297 297 296 296 296 295 295 295 295 295 294 294 294 293 293 293 294 294 294 294 294 294 294 294 293 294 294 294 294 294 294 294 294 294 294 294 293 292 291 290 289 288 287 286 285 285 285 285 285 286 287 288 288 288 288 286 283 280 276 272 268 266 266
298 298 298 298 297 297 296 296 296 296 295 295 296 296 296 296 296 297 297 297 297 297 297 297 297 296 296 295 295 294 294 294 294 294 294 294 294 294 294 295 295 295 295 295 294 294 294 294 294 294 294 294 294 294 294 294 294 294 294 293 292 291 290 288 287 286 285 284 284 283 283 284 286 287 287 288 288 287 286 283 280 277 273 269 266 263
298 298 298 297 297 296 296 296 296 296 296 296 296 297 297 297 297 298 298 298 297 297 297 297 297 296 296 295 294 294 294 294 293 293 294 294 294 295 295 295 295 295 295 295 295 295 294 294 294 294 294 294 294 294 294 294 294 294 294 293 292 291 289 288 286 285 284 283 282 282 282 283 284 285 286 286 286 286 285 283 281 278 274 271 268 263
298 298 297 297 296 296 296 296 296 296 297 297 297 297 298 298 298 298 298 298 297 297 297 297 296 296 296 295 295 294 293 293 294 294 294 295 295 296 296 295 295 295 295 295 295 295 294 294 294 294 294 293 294 294 294 294 295 295 294 293 292 291 289 288 286 285 284 283 282 281 281 282 282 283 283 284 284 284 284 283 281 278 275 273 270 266
297 297 297 297 297 297 297 297 297 297 298 298 298 298 298 299 298 298 298 297 297 297 297 297 296 296 296 296 295 294 294 294 294 295 295 296 296 296 296 295 295 295 295 295 295 294 294 294 293 293 293 293 293 294 294 295 295 295 294 294 292 291 290 289 288 287 285 284 283 283 282 282 282 282 282 283 283 283 283 282 280 277 275 272 270 268
297 297 297 297 297 297 298 298 298 298 298 299 299 299 299 299 298 298 297 297 297 297 297 297 296 296 296 296 295 294 294 295 295 295 296 296 296 296 295 295 295 295 295 295 294 294 294 293 293 292 292 292 293 294 295 295 295 295 294 293 293 293 292 291 290 289 288 287 286 285 285 284 284 284 284 284 284 284 283 282 280 277 275 273 270 267
297 297 297 298 298 298 298 299 299 299 299 299 299 299 299 298 298 297 297 297 296 297 297 297 297 296 296 296 295 295 295 295 295 295 296 296 296 296 295 295 295 296 295 295 294 294 293 293 292 291 291 292 293 295 295 295 294 294 294 294 295 295 295 294 293 292 291 290 288 287 287 286 286 286 286 286 286 285 285 284 282 280 278 276 272 268
297 298 298 298 298 298 299 299 299 299 299 299 299 298 298 298 297 297 297 296 296 296 297 297 297 296 296 296 295 295 295 295 295 295 296 296 296 296 296 297 297 296 296 295 295 294 293 291 290 290 290 292 294 294 294 293 292 293 294 295 296 297 297 296 295 294 293 291 290 289 288 288 288 288 288 288 287 287 287 286 286 285 283 280 276 272
297 298 298 298 298 298 298 298 298 298 298 298 298 297 297 297 297 296 296 296 296 296 297 297 297 296 296 296 295 295 295 295 295 296 296 297 297 297 298 298 298 297 297 296 295 293 292 290 289 289 290 292 293 293 291 290 291 292 293 295 296 298 298 298 297 296 294 292 291 289 288 287 287 287 288 288 288 288 288 288 288 287 286 284 281 276
297 297 298 298 298 298 298 298 298 297 297 297 297 296 296 296 296 296 296 296 297 297 297 297 297 297 296 296 296 296 295 296 296 296 297 297 298 299 299 299 298 297 297 296 294 292 289 287 287 288 290 291 291 290 288 289 290 291 293 294 296 297 298 298 297 296 294 292 290 288 287 287 286 287 287 288 288 289 289 289 288 288 287 286 283 278
297 297 297 297 297 297 297 297 297 297 297 296 296 296 296 296 296 296 297 297 297 298 298 298 297 297 297 296 296 296 296 296 296 296 297 298 298 299 299 298 297 297 296 294 292 289 286 285 286 287 289 289 288 286 286 287 289 290 292 293 294 296 297 297 296 295 293 291 289 287 286 286 286 286 287 288 288 288 288 288 288 288 289 287 283 277
297 297 297 297 297 297 297 297 297 297 297 296 296 296 296 296 296 297 297 297 298 298 298 297 297 297 296 296 295 296 296 296 296 296 297 298 298 299 299 298 297 295 294 292 289 286 284 284 285 286 287 286 285 285 286 287 288 290 291 292 293 294 295 295 295 295 294 292 290 289 287 287 287 287 287 288 288 288 288 288 289 290 290 287 282 273
298 297 297 297 297 297 297 297 297 297 297 297 296 296 296 296 297 297 297 297 298 298 297 297 296 295 295 294 294 294 294 295 295 295 296 297 298 298 298 296 295 294 292 288 285 283 282 283 284 285 285 284 284 284 286 287 289 289 290 291 292 292 292 293 293 294 294 294 293 291 290 289 288 288 288 289 289 290 290 291 293 293 291 286 278 269
298 298 298 297 297 297 297 297 297 297 297 297 297 296 296 296 296 297 297 297 297 296 296 295 294 294 293 293 293 293 293 293 293 294 295 296 297 297 296 295 294 292 289 285 281 280 281 283 284 284 284 283 283 284 286 288 288 288 288 289 289 290 289 289 290 291 292 293 294 294 293 291 291 290 290 290 291 293 294 295 296 295 291 282 273 265
298 298 297 297 297 297 297 297 297 297 297 297 297 296 296 296 296 296 296 296 296 295 294 293 292 292 292 291 291 291 291 291 292 293 294 295 296 296 295 293 291 289 285 281 279 278 280 282 284 284 284 283 283 285 286 288 288 287 286 287 287 287 287 286 287 288 289 291 293 294 293 293 291 290 290 290 291 293 295 296 295 292 285 276 270 263
297 297 297 297 297 297 297 297 297 297 297 296 296 296 296 295 295 295 295 295 294 293 293 292 291 291 290 290 290 290 290 290 291 292 293 294 294 294 293 291 289 286 282 279 278 278 279 281 282 283 283 283 283 284 286 287 286 285 285 284 284 284 283 284 284 285 287 289 291 292 292 292 290 289 288 288 288 290 290 290 288 283 276 269 262 257
297 296 296 296 296 296 296 296 296 296 296 295 295 295 295 295 295 295 295 294 293 293 292 291 290 290 289 289 289 289 289 290 291 292 293 294 294 293 292 289 286 283 280 278 277 277 277 278 279 280 281 282 282 284 285 286 285 284 283 282 281 282 282 282 283 285 287 288 290 290 290 289 287 286 285 284 284 282 281 277 272 267 261 256 253 249
297 296 296 296 296 296 296 296 296 296 295 295 295 294 294 294 294 294 294 294 293 292 291 290 290 289 288 288 288 288 288 289 290 292 293 294 293 292 290 287 283 280 277 276 276 276 275 274 274 275 277 279 280 282 283 284 283 281 280 279 278 279 279 281 282 284 285 285 286 286 286 286 285 284 283 281 277 272 267 261 254 248 243 239 238 239
297 297 296 296 296 296 296 296 296 295 295 295 294 294 294 294 294 294 294 293 292 291 290 289 289 288 287 287 286 286 287 288 290 292 293 293 292 291 288 284 280 277 275 275 275 274 272 270 269 270 271 274 277 279 281 281 281 279 277 276 275 275 276 277 279 280 280 281 282 283 284 285 286 286 284 279 272 263 256 250 244 239 234 229 228 228
297 297 297 297 296 296 296 296 296 295 295 294 294 294 294 294 294 294 293 293 292 291 290 288 287 286 285 285 285 286 286 288 290 291 292 292 291 289 285 281 277 274 273 273 273 272 269 267 265 265 266 269 273 276 278 279 278 277 276 275 273 273 273 274 275 276 277 279 281 283 286 288 290 290 287 280 271 262 254 248 244 241 237 234 231 229
298 297 297 297 296 296 296 296 295 295 295 294 294 294 294 294 294 293 293 292 291 290 289 287 285 284 283 283 284 285 286 288 289 291 291 291 289 286 283 278 274 271 271 271 271 269 267 264 261 260 261 264 269 273 276 276 275 274 274 274 274 273 274 275 275 276 278 281 283 287 290 292 294 294 290 284 275 266 259 255 253 252 250 248 244 241
297 297 297 296 296 296 295 295 294 294 294 294 293 293 293 293 293 293 292 291 290 289 287 285 284 283 282 282 283 284 286 287 289 290 290 289 287 284 280 275 271 269 268 268 268 267 265 262 260 258 258 261 266 271 274 273 270 269 269 271 273 274 275 277 279 281 282 285 288 291 293 295 297 297 295 290 284 278 274 272 270 269 267 265 260 256
297 297 296 296 295 295 294 294 293 293 293 292 292 292 292 292 292 292 291 290 289 287 285 284 282 282 281 282 283 284 285 287 288 288 287 286 284 281 277 272 269 267 266 266 265 264 263 261 259 258 257 260 265 270 272 271 267 264 263 265 269 273 276 279 282 284 286 288 290 293 296 299 301 301 299 298 295 292 290 289 288 285 281 276 270 266
297 296 296 295 294 294 293 292 292 292 291 291 291 291 291 290 290 290 290 289 287 286 284 282 281 280 281 282 283 284 285 286 287 286 285 283 281 278 274 269 267 266 265 264 262 261 260 259 258 257 257 259 263 268 271 270 267 263 259 257 258 263 270 276 279 283 286 289 291 293 296 300 302 302 301 301 301 300 299 298 296 294 289 283 276 272
296 296 295 294 294 293 292 291 291 291 290 290 290 289 289 289 289 288 288 287 285 284 282 280 280 280 280 281 282 284 284 285 285 284 282 280 277 274 270 266 264 264 264 262 260 258 258 257 256 255 255 257 261 265 268 270 268 264 260 256 253 253 257 263 268 274 279 283 287 289 292 294 295 297 299 300 302 302 303 301 299 296 293 289 283 279
296 296 295 294 293 292 292 291 290 290 289 289 288 288 288 287 287 286 286 285 283 282 280 279 279 279 279 280 281 282 283 284 284 282 279 276 273 270 266 263 262 262 262 261 259 257 255 254 254 253 253 254 256 260 264 267 267 265 264 261 256 252 251 254 257 261 266 270 274 277 280 283 286 289 292 294 296 298 299 298 297 295 293 291 288 285
296 296 295 294 293 292 292 291 290 289 289 288 287 287 286 285 285 284 283 282 281 280 278 278 277 277 278 278 279 280 281 281 281 279 276 273 270 266 263 260 259 259 259 259 258 256 253 252 251 250 250 251 253 256 260 264 266 266 266 264 262 260 260 260 260 261 263 266 267 268 270 273 276 280 283 286 288 289 290 291 292 291 290 289 288 286
297 296 295 295 294 293 292 291 290 289 288 287 286 285 284 283 282 281 280 279 278 277 276 275 275 275 276 277 277 277 278 278 278 275 273 269 266 263 260 258 257 257 257 258 257 255 252 249 248 247 248 249 251 253 257 261 265 267 267 267 267 266 266 268 269 270 272 272 271 271 270 270 272 273 276 278 280 282 283 284 285 285 286 286 285 284
297 297 296 295 294 293 292 291 290 289 288 287 285 284 283 281 279 278 277 275 274 273 272 272 272 273 274 275 276 276 276 276 274 272 269 266 263 260 258 256 256 255 255 255 255 253 251 248 246 245 246 247 250 252 256 259 263 266 267 268 269 270 272 273 276 277 278 278 277 277 275 273 272 273 274 274 276 277 277 279 279 280 281 281 281 281
298 297 296 295 294 293 292 291 290 289 288 286 284 282 280 278 276 275 273 271 270 269 269 269 270 271 272 274 275 275 275 274 271 269 265 263 260 257 256 255 255 255 255 254 253 250 248 246 244 244 245 247 249 252 256 259 262 265 268 269 271 273 275 277 280 281 282 282 281 280 278 276 275 273 273 273 273 273 273 274 275 275 276 276 277 277
298 297 296 296 295 294 293 291 290 289 287 286 283 281 279 276 273 271 269 267 266 266 266 266 267 269 271 272 273 273 272 271 269 266 263 260 257 254 253 253 254 254 254 253 252 249 246 243 242 242 244 247 250 253 256 260 263 266 268 270 273 275 277 280 282 284 285 285 284 283 281 279 277 275 273 272 271 270 270 270 270 270 270 271 271 272
299 298 297 296 295 294 293 292 291 289 287 285 283 280 277 273 270 267 265 264 263 263 263 264 265 267 269 270 270 270 269 267 265 264 262 259 255 253 252 252 253 253 254 253 251 248 244 241 240 241 243 246 250 254 257 261 264 267 270 273 275 278 281 283 285 286 287 287 287 286 284 282 280 277 274 271 270 268 267 266 266 266 266 266 267 268
300 299 298 297 296 295 294 292 291 289 287 285 282 278 275 271 267 264 261 260 259 259 260 261 263 265 267 268 267 266 265 263 262 261 260 257 254 251 251 251 252 254 254 253 251 247 243 240 239 239 242 245 249 253 257 261 266 269 273 276 279 282 285 287 289 290 290 290 289 289 288 285 282 278 274 271 268 266 264 263 262 261 261 261 262 263
303 302 301 299 298 296 295 293 291 289 286 284 280 277 273 268 263 260 257 255 255 255 257 258 261 263 265 265 264 262 261 260 259 259 259 256 253 251 250 251 252 253 254 253 251 248 244 242 239 239 241 245 249 253 257 261 266 271 275 279 283 286 289 291 292 293 293 293 293 292 291 288 284 279 274 269 265 263 261 259 258 257 256 256 256 258
308 307 306 304 302 300 297 294 292 289 286 283 279 274 269 264 259 255 252 251 251 252 254 256 258 261 262 261 260 258 257 256 257 257 257 254 251 250 250 250 251 252 253 252 250 247 244 242 240 241 242 246 249 253 258 262 266 271 275 280 284 288 290 292 294 295 296 296 297 296 293 291 285 279 273 267 262 259 257 255 253 251 250 250 251 253